STARLINK-11487 [DTC] (62278 NORAD) Tracking and Keplerian Element Data

This shows tracking and keplerian element data for the satellite.

Feedback or suggestion? Click here.




ElementValue
Catalog62278
NameSTARLINK-11487 [DTC]
Epoch Orbit1035
Epoch Day35.06671395
Epoch Year2025
RAAN299.876
Inclination42.9997
Eccentricity0.0001857
Argument of Perigee269.3888
Mean Anonmoly90.6767
Mean Motion15.70838165
Decay Rate7.5E-07
L11 62278U 24237M 25035.06671395 .00000075 00000+0 40802-5 0 9995
L22 62278 42.9997 299.8760 0001857 269.3888 90.6767 15.70838165 10351



Live tracking and technical data element details for STARLINK-11487 [DTC] (NORAD 62278). STARLINK-11487 [DTC] can be tracked NOW for your location showing map with azimuth and elevation plus other details from your city location.







IsCatalogInMostPopularTable: catalog: 62278, numindb: 11
Update: records affected: 1



GetName: 62278 STARLINK-11487 [DTC]

Hit Count: updated at: Mon, 19 May 2025 03:19:34 GMT